Shahre-Kord, Iran

10:32 AM +0430 on May 28, 2017 (GMT +0430)
Shahre Kord

Weather History for OIFS - October, 2013

Change the Weather History Date:

Friday, October 11, 2013

  Actual Average Record
Temperature  
Mean Temperature 54 °F -  
Max Temperature 72 °F - - ()
Min Temperature 35 °F - - ()
Degree Days  
Heating Degree Days 12    
Growing Degree Days 4 (Base 50)    
Moisture  
Dew Point 30 °F    
Average Humidity 39    
Maximum Humidity 65    
Minimum Humidity 13    
Precipitation  
Precipitation 0.00 in - - ()
Sea Level Pressure  
Sea Level Pressure 30.23 in    
Wind  
Wind Speed 4 mph ()    
Max Wind Speed 14 mph    
Max Gust Speed -    
Visibility 6.1 miles    
Events      
T = Trace of Precipitation, MM = Missing Value Source: Averaged Metar Reports

Daily Weather History Graph

Daily Weather History Graph

Search for Another Location

Airport or City:

Trip Planner

Search our weather history database for the weather conditions in past years. The results will help you decide how hot, cold, wet, or windy it might be!

Date:

Astronomy

Oct. 11, 2013 Rise Set
Actual Time 6:07 AM +0330 5:38 PM +0330
Civil Twilight 5:42 AM +0330 6:03 PM +0330
Nautical Twilight 5:14 AM +0330 6:31 PM +0330
Astronomical Twilight 4:45 AM +0330 7:00 PM +0330
Moon 12:19 PM +0330 (10/11) 11:08 PM +0330 (10/11)
Length of Visible Light 12h 20m
Length of Day
11h 31m
Waxing Crescent, 43% of the Moon is Illuminated
Oct 11
Waxing Crescent
Oct 12
First Quarter
Oct 19
Full
Oct 27
Last Quarter
Nov 3
New

Hourly Weather History & Observations

Time (+0330) Temp. Windchill Dew Point Humidity Pressure Visibility Wind Dir Wind Speed Gust Speed Precip Events Conditions
12:30 AM 48.2 °F - 30.2 °F 50% 30.30 in - NW 9.2 mph - N/A   Clear
1:30 AM 46.4 °F 44.3 °F 30.2 °F 53% 30.30 in - NNW 4.6 mph - N/A   Clear
3:30 AM 43 °F - 30 °F 47% 29.93 in 6 mi NW 4.5 mph - -  
3:30 AM 42.8 °F 40.1 °F 30.2 °F 61% 30.30 in - NW 4.6 mph - N/A   Clear
4:30 AM 42.8 °F 40.1 °F 30.2 °F 61% 30.30 in - NNW 4.6 mph - N/A   Clear
5:30 AM 37.4 °F - 24.8 °F 60% 30.30 in - Calm Calm - N/A   Clear
6:30 AM 35.6 °F - 24.8 °F 65% 30.33 in - Calm Calm - N/A   Clear
7:30 AM 42.8 °F - 23.0 °F 46% 30.33 in - Calm Calm - N/A   Clear
8:30 AM 51.8 °F - 23.0 °F 33% 30.33 in - Calm Calm - N/A   Clear
9:30 AM 57 °F - 32 °F 26% 30.08 in 6 mi Calm Calm - -  
9:30 AM 57.2 °F - 32.0 °F 38% 30.36 in - Calm Calm - N/A   Clear
10:30 AM 62.6 °F - 30.2 °F 30% 0.00 in - Calm Calm - N/A   Clear
11:30 AM 64.4 °F - 33.8 °F 32% 30.33 in - Calm Calm - N/A   Clear
12:30 PM 69.8 °F - 33.8 °F 27% 30.27 in - NNE 4.6 mph - N/A   Clear
1:30 PM 71.6 °F - 33.8 °F 25% 30.27 in 6.2 mi Calm Calm - N/A   Partly Cloudy
2:30 PM 71.6 °F - 32.0 °F 23% 30.24 in 6.2 mi Calm Calm - N/A   Partly Cloudy
3:30 PM 72 °F - 32 °F 13% 29.91 in 6 mi NNE 13.4 mph - -   Scattered Clouds
3:30 PM 71.6 °F - 32.0 °F 23% 30.21 in 6.2 mi NNE 13.8 mph - N/A   Partly Cloudy
4:30 PM 69.8 °F - 33.8 °F 27% 30.21 in 6.2 mi East 6.9 mph - N/A   Partly Cloudy
5:30 PM 69.8 °F - 33.8 °F 27% 30.21 in 6.2 mi ENE 4.6 mph - N/A   Partly Cloudy
6:30 PM 60.8 °F - 33.8 °F 36% 30.21 in 6.2 mi East 11.5 mph - N/A   Partly Cloudy
7:30 PM 60.8 °F - 32.0 °F 34% 30.24 in - WNW 6.9 mph - N/A   Clear
8:30 PM 53.6 °F - 30.2 °F 41% 30.24 in - WNW 6.9 mph - N/A   Clear
9:30 PM 52 °F - 30 °F 30% 29.99 in 6 mi WNW 6.7 mph - -  
9:30 PM 51.8 °F - 30.2 °F 44% 30.27 in - WNW 6.9 mph - N/A   Clear
10:30 PM - - - N/A% 30.27 in - Calm Calm - N/A   Clear
11:30 PM 48.2 °F - 30.2 °F 50% 30.27 in - NW 6.9 mph - N/A   Clear